Location: Baix
(44.7118°N, 4.7648°E)
Time: 10:13:41
(UTC+00:00)

Vanguard 2 Rocket - Pass Details

Date: 05 December 2020
Orbit: 554 x 3325 km, 32.9° (Epoch: 21 January)

Event Time Altitude Azimuth Distance (km) Brightness Sun altitude
Rises 11:27:54 0° 278° (W) 7,312 11.4 22.8°
Reaches altitude 10° 11:33:47 10° 270° (W) 6,188 11.2 22.8°
Maximum altitude 11:48:56 32° 218° (SW) 3,908 11.3 22.7°
Drops below altitude 10° 11:59:53 10° 161° (SSE) 4,431 11.7 22.5°
Sets 12:03:18 0° 151° (SSE) 5,055 11.5 22.4°
